This is the latest recevied weather packets stored in our database for station/object XE2RCS-1. If no packets are shown the sender has not sent any weather packets the latest 10 day(s).
| Time | Temp. | Humidity | Pressure | Rain* | Wind** | Luminosity | Snow |
|---|---|---|---|---|---|---|---|
| 1777479513 | 28.89° C | 32% | 1012 hPa | 0 mm | - | - | - |
| 1777478916 | 28.89° C | 32% | 1012 hPa | 0 mm | - | - | - |
| 1777478312 | 28.89° C | 32% | 1012 hPa | 0 mm | - | - | - |
| 1777477712 | 28.89° C | 32% | 1012 hPa | 0 mm | - | - | - |
| 1777477111 | 28.33° C | 33% | 1012 hPa | 0 mm | - | - | - |
| 1777476510 | 28.33° C | 34% | 1013 hPa | 0 mm | - | - | - |
| 1777475910 | 27.78° C | 35% | 1013 hPa | 0 mm | - | - | - |
| 1777475309 | 27.78° C | 37% | 1013 hPa | 0 mm | - | - | - |
| 1777474709 | 27.22° C | 39% | 1013 hPa | 0 mm | - | - | - |
| 1777474108 | 26.67° C | 40% | 1013 hPa | 0 mm | - | - | - |
| 1777473507 | 26.11° C | 46% | 1013 hPa | 0 mm | - | - | - |
| 1777472907 | 26.11° C | 55% | 1013 hPa | 0 mm | - | - | - |
| 1777472306 | 25.56° C | 56% | 1013 hPa | 0 mm | - | - | - |
| 1777471706 | 25.56° C | 55% | 1013 hPa | 0 mm | - | - | - |
| 1777471105 | 24.44° C | 50% | 1013 hPa | 0 mm | - | - | - |
| 1777470505 | 24.44° C | 50% | 1013 hPa | 0 mm | - | - | - |
| 1777469904 | 25° C | 49% | 1013 hPa | 0 mm | - | - | - |
| 1777469303 | 25° C | 42% | 1013 hPa | 0 mm | - | - | - |
| 1777468703 | 25° C | 42% | 1013 hPa | 0 mm | - | - | - |
| 1777468102 | 23.89° C | 43% | 1013 hPa | 0 mm | - | - | - |
| 1777467501 | 23.89° C | 42% | 1013 hPa | 0 mm | - | - | - |
| 1777466901 | 23.33° C | 43% | 1013 hPa | 0 mm | - | - | - |
| 1777466300 | 23.33° C | 44% | 1013 hPa | 0 mm | - | - | - |
| 1777465700 | 23.33° C | 45% | 1013 hPa | 0 mm | - | - | - |
| 1777465099 | 23.33° C | 43% | 1013 hPa | 0 mm | - | - | - |
* Rain latest hour (hover to see other rain measurements)
** Current wind speed in m/s (hover to see current wind gust speed)